period_start,C,m1,H,J0,J1,J2,J3,J4,J5,JA,JB,JC,JD,JJ,JK,JN,#
2017-12-13 00:03:35,0.17,2.12,0.00,13.43,16.37,19.85,14.73,46.91,1043.32,2067.02,2705.45,2608.56,2982.60,599.95,632.05,25.20,0000 0000 0000 0000 000000
2017-12-13 00:08:37,0.18,2.12,0.00,13.42,16.37,19.85,14.84,47.04,1043.21,2067.02,2702.35,2606.61,2980.44,600.12,632.13,25.25,0000 0000 0000 0000 000000
2017-12-13 00:13:38,0.16,2.13,0.00,13.41,16.35,19.83,14.81,47.04,1043.26,2067.01,2699.42,2604.67,2978.28,600.10,632.07,25.30,0000 0000 0000 0000 000000
2017-12-13 00:18:39,0.16,2.14,0.00,13.41,16.34,19.82,14.83,47.04,1043.36,2067.04,2696.69,2602.93,2976.26,600.37,632.57,25.35,0000 0000 0000 0000 000000
2017-12-13 00:23:40,0.19,2.15,0.00,13.40,16.34,19.82,14.82,46.83,1043.37,2067.06,2693.53,2600.81,2973.82,600.19,632.45,25.40,0000 0000 0000 0000 000000
2017-12-13 00:28:42,0.26,2.16,0.00,13.39,16.32,19.81,14.78,46.98,1043.21,2067.10,2689.58,2598.22,2970.83,600.00,632.06,25.45,0000 0000 0000 0000 000000
2017-12-13 00:33:43,0.28,2.18,0.00,13.39,16.32,19.82,14.76,47.03,1043.15,2067.20,2685.04,2595.09,2967.09,599.94,632.09,25.50,0000 0000 0000 0000 000000
2017-12-13 00:38:44,0.23,2.19,0.00,13.38,16.30,19.79,14.78,46.98,1043.04,2067.15,2680.87,2592.30,2963.90,599.77,631.80,25.55,0000 0000 0000 0000 000000
2017-12-13 00:43:45,0.22,2.20,0.00,13.37,16.29,19.78,14.85,46.95,1042.99,2067.12,2677.16,2589.83,2961.05,600.14,632.21,25.60,0000 0000 0000 0000 000000
2017-12-13 00:48:46,0.19,2.21,0.00,13.35,16.28,19.76,14.81,46.88,1042.99,2067.13,2673.96,2587.67,2958.50,600.13,632.14,25.66,0000 0000 0000 0000 000000
2017-12-13 00:53:47,0.21,2.22,0.00,13.34,16.27,19.78,14.90,46.95,1042.99,2067.22,2670.54,2585.48,2956.01,600.19,632.40,25.71,0000 0000 0000 0000 000000
2017-12-13 00:58:48,0.24,2.23,0.00,13.34,16.25,19.74,14.80,47.00,1042.99,2067.26,2666.61,2582.96,2953.27,600.68,632.83,25.76,0000 0000 0000 0000 000000
2017-12-13 01:03:50,0.28,2.25,0.00,13.33,16.24,19.73,14.74,46.93,1042.99,2067.70,2662.72,2580.39,2950.39,599.89,632.02,25.81,0000 0000 0000 0000 000000
2017-12-13 01:08:51,0.23,2.26,0.00,13.31,16.23,19.75,14.76,47.04,1042.99,2067.94,2659.08,2577.99,2947.59,599.91,632.15,25.86,0000 0000 0000 0000 000000
2017-12-13 01:13:52,0.19,2.27,0.00,13.31,16.22,19.74,14.75,46.95,1042.99,2067.95,2655.75,2575.75,2944.98,599.69,632.09,25.91,0000 0000 0000 0000 000000
2017-12-13 01:18:53,0.18,2.28,0.00,13.29,16.20,19.72,14.84,47.03,1042.99,2067.97,2652.52,2573.62,2942.67,600.29,632.61,25.96,0000 0000 0000 0000 000000
2017-12-13 01:23:54,0.20,2.29,0.00,13.27,16.19,19.71,14.76,47.03,1042.99,2067.98,2649.10,2571.43,2940.26,599.87,632.16,26.01,0000 0000 0000 0000 000000
2017-12-13 01:28:56,0.21,2.30,0.00,13.27,16.18,19.70,14.75,46.93,1042.99,2067.99,2645.69,2569.16,2937.54,599.76,632.08,26.06,0000 0000 0000 0000 000000
2017-12-13 01:33:57,0.16,2.31,0.00,13.26,16.17,19.69,14.83,47.05,1042.99,2067.98,2642.84,2567.16,2935.09,600.23,632.52,26.11,0000 0000 0000 0000 000000
2017-12-13 01:38:59,0.16,2.32,0.00,13.25,16.16,19.69,14.79,46.88,1042.93,2067.99,2640.39,2565.44,2932.90,600.13,632.42,26.16,0000 0000 0000 0000 000000
2017-12-13 01:44:00,0.16,2.33,0.00,13.24,16.14,19.66,14.82,46.94,1042.80,2067.99,2637.69,2563.66,2930.82,599.99,632.15,26.21,0000 0000 0000 0000 000000
2017-12-13 01:49:01,0.17,2.34,0.00,13.23,16.14,19.64,14.83,47.06,1042.67,2067.99,2634.66,2561.77,2928.77,600.07,632.24,26.26,0000 0000 0000 0000 000000
2017-12-13 01:54:02,0.20,2.34,0.00,13.22,16.12,19.61,14.78,46.95,1042.55,2067.99,2631.41,2559.65,2926.29,600.17,632.26,26.31,0000 0000 0000 0000 000000
2017-12-13 01:59:04,0.19,2.36,0.00,13.21,16.12,19.63,14.76,47.04,1042.54,2067.99,2627.92,2557.58,2923.62,600.19,632.30,26.36,0000 0000 0000 0000 000000
2017-12-13 02:04:05,0.17,2.36,0.00,13.20,16.09,19.63,14.76,47.17,1042.54,2067.99,2624.92,2555.64,2921.41,599.95,632.06,26.41,0000 0000 0000 0000 000000
2017-12-13 02:09:07,0.13,2.37,0.00,13.19,16.09,19.61,14.80,47.17,1042.53,2067.99,2622.65,2554.09,2919.63,600.10,632.24,26.46,0000 0000 0000 0000 000000
2017-12-13 02:14:08,0.12,2.38,0.00,13.17,16.07,19.60,14.86,47.19,1042.50,2068.00,2620.69,2552.73,2918.12,600.06,632.15,26.51,0000 0000 0000 0000 000000
2017-12-13 02:19:09,0.11,2.38,0.00,13.17,16.07,19.60,14.78,47.08,1042.50,2068.00,2618.79,2551.58,2916.71,600.06,632.27,26.56,0000 0000 0000 0000 000000
2017-12-13 02:24:10,0.11,2.39,0.00,13.17,16.04,19.56,14.78,47.05,1042.50,2068.01,2616.96,2550.37,2915.41,599.67,631.93,26.61,0000 0000 0000 0000 000000
2017-12-13 02:29:11,0.12,2.40,0.00,13.15,16.04,19.57,14.87,47.08,1042.50,2068.02,2615.01,2549.01,2913.82,600.01,632.22,26.66,0000 0000 0000 0000 000000
2017-12-13 02:34:13,0.12,2.40,0.00,13.13,16.03,19.55,14.79,47.08,1042.50,2068.04,2612.88,2547.69,2912.38,600.05,632.35,26.71,0000 0000 0000 0000 000000
2017-12-13 02:39:14,0.07,2.41,0.00,13.12,16.02,19.52,14.75,47.15,1042.54,2068.08,2611.48,2546.94,2911.54,599.99,632.32,26.76,0000 0000 0000 0000 000000
2017-12-13 02:44:15,0.08,2.41,0.00,13.10,16.02,19.54,14.75,47.13,1042.59,2068.23,2610.55,2546.14,2910.88,599.63,631.93,26.81,0000 0000 0000 0000 000000
2017-12-13 02:49:16,0.06,2.41,0.00,13.10,16.00,19.50,14.86,47.19,1042.59,2068.33,2609.62,2545.57,2910.02,600.28,632.67,26.86,0000 0000 0000 0000 000000
2017-12-13 02:54:17,0.08,2.42,0.00,13.09,15.99,19.49,14.71,47.12,1042.54,2068.56,2608.41,2544.79,2909.06,599.72,632.22,26.91,0000 0000 0000 0000 000000
2017-12-13 02:59:18,0.11,2.42,0.00,13.08,15.99,19.49,14.72,47.15,1042.51,2068.65,2606.82,2543.80,2907.87,599.89,632.29,26.96,0000 0000 0000 0000 000000
2017-12-13 03:04:20,0.15,2.43,0.00,13.06,15.99,19.47,14.73,47.19,1042.50,2068.71,2604.94,2542.48,2906.31,600.02,632.42,27.01,0000 0000 0000 0000 000000
2017-12-13 03:09:22,0.13,2.44,0.00,13.05,15.97,19.48,14.75,47.13,1042.50,2068.77,2602.69,2541.00,2904.55,599.80,632.29,27.06,0000 0000 0000 0000 000000
2017-12-13 03:14:23,0.10,2.44,0.00,13.05,15.97,19.45,14.80,47.12,1042.50,2068.89,2600.93,2539.86,2903.43,599.95,632.40,27.11,0000 0000 0000 0000 000000
2017-12-13 03:19:24,0.14,2.45,0.00,13.04,15.97,19.47,14.76,47.16,1042.50,2068.89,2598.91,2538.48,2901.71,600.30,632.79,27.16,0000 0000 0000 0000 000000
2017-12-13 03:24:25,0.13,2.46,0.00,13.03,15.95,19.46,14.77,47.19,1042.49,2068.93,2596.73,2537.05,2900.14,600.05,632.56,27.21,0000 0000 0000 0000 000000
2017-12-13 03:29:26,0.13,2.46,0.00,13.02,15.94,19.42,14.85,47.25,1042.50,2068.91,2594.72,2535.62,2898.35,600.01,632.37,27.26,0000 0000 0000 0000 000000
2017-12-13 03:34:28,0.18,2.47,0.00,13.01,15.94,19.41,14.84,47.19,1042.50,2068.88,2591.89,2533.70,2896.04,600.27,632.68,27.31,0000 0000 0000 0000 000000
2017-12-13 03:39:29,0.19,2.48,0.00,13.00,15.92,19.40,14.77,47.17,1042.50,2068.87,2588.77,2531.69,2893.69,599.79,632.34,27.36,0000 0000 0000 0000 000000
2017-12-13 03:44:30,0.16,2.49,0.00,12.99,15.92,19.40,14.74,47.18,1042.50,2068.93,2586.22,2529.93,2891.59,600.17,632.77,27.41,0000 0000 0000 0000 000000
2017-12-13 03:49:32,0.14,2.50,0.00,12.98,15.90,19.39,14.86,47.13,1042.49,2068.91,2583.93,2528.42,2889.73,600.27,632.86,27.46,0000 0000 0000 0000 000000
2017-12-13 03:54:33,0.14,2.51,0.00,12.97,15.89,19.37,14.84,47.17,1042.50,2068.96,2581.67,2526.94,2887.98,600.11,632.78,27.51,0000 0000 0000 0000 000000
2017-12-13 03:59:34,0.16,2.51,0.00,12.98,15.88,19.38,14.81,47.12,1042.49,2068.95,2579.11,2525.18,2886.00,600.02,632.69,27.56,0000 0000 0000 0000 000000
2017-12-13 04:04:35,0.24,2.52,0.00,12.97,15.87,19.37,14.73,47.06,1042.44,2068.95,2575.74,2522.80,2883.24,599.75,632.35,27.61,0000 0000 0000 0000 000000
2017-12-13 04:09:36,0.22,2.54,0.00,12.95,15.85,19.38,14.81,47.04,1042.49,2068.96,2572.01,2520.22,2880.35,600.15,632.68,27.66,0000 0000 0000 0000 000000
2017-12-13 04:14:37,0.23,2.55,0.00,12.95,15.84,19.36,14.74,47.17,1042.50,2068.97,2568.52,2517.80,2877.83,600.13,632.73,27.71,0000 0000 0000 0000 000000
2017-12-13 04:19:39,0.21,2.56,0.00,12.94,15.82,19.34,14.74,47.15,1042.50,2068.98,2564.97,2515.37,2875.22,599.77,632.46,27.76,0000 0000 0000 0000 000000
2017-12-13 04:24:40,0.19,2.57,0.00,12.92,15.82,19.34,14.83,47.10,1042.50,2068.99,2562.02,2513.37,2872.95,599.89,632.64,27.81,0000 0000 0000 0000 000000
2017-12-13 04:29:41,0.18,2.58,0.00,12.90,15.79,19.32,14.73,47.17,1042.50,2068.99,2559.15,2511.38,2870.56,599.91,632.67,27.86,0000 0000 0000 0000 000000
2017-12-13 04:34:43,0.19,2.59,0.00,12.90,15.79,19.34,14.73,47.08,1042.50,2069.00,2556.35,2509.29,2868.22,599.85,632.62,27.91,0000 0000 0000 0000 000000
2017-12-13 04:39:44,0.16,2.60,0.00,12.89,15.78,19.30,14.81,47.13,1042.50,2069.00,2553.85,2507.49,2865.93,599.83,632.63,27.96,0000 0000 0000 0000 000000
2017-12-13 04:44:45,0.19,2.60,0.00,12.87,15.77,19.27,14.67,47.02,1042.50,2069.00,2551.19,2505.60,2863.59,599.73,632.55,28.01,0000 0000 0000 0000 000000
2017-12-13 04:49:46,0.20,2.62,0.00,12.87,15.76,19.28,14.82,47.08,1042.50,2069.00,2547.85,2503.49,2861.28,600.13,633.19,28.06,0000 0000 0000 0000 000000
2017-12-13 04:54:48,0.17,2.62,0.00,12.86,15.74,19.25,14.86,47.11,1042.50,2069.00,2544.95,2501.67,2859.49,600.12,632.93,28.11,0000 0000 0000 0000 000000
2017-12-13 04:59:49,0.14,2.63,0.00,12.84,15.74,19.23,14.85,47.14,1042.50,2069.01,2542.55,2500.12,2857.77,599.95,632.87,28.16,0000 0000 0000 0000 000000
2017-12-13 05:04:50,0.17,2.64,0.00,12.83,15.72,19.23,14.78,47.16,1042.51,2069.02,2540.21,2498.41,2855.70,600.05,633.01,28.21,0000 0000 0000 0000 000000
2017-12-13 05:09:51,0.18,2.65,0.00,12.82,15.72,19.22,14.78,47.00,1042.50,2069.02,2537.45,2496.57,2853.54,600.01,633.00,28.26,0000 0000 0000 0000 000000
2017-12-13 05:14:53,0.14,2.66,0.00,12.80,15.71,19.24,14.69,47.08,1042.50,2069.02,2534.83,2495.06,2851.85,599.82,632.72,28.31,0000 0000 0000 0000 000000
2017-12-13 05:19:54,0.16,2.67,0.00,12.79,15.69,19.22,14.83,47.21,1042.52,2069.09,2532.58,2493.62,2850.10,600.12,633.18,28.36,0000 0000 0000 0000 000000
2017-12-13 05:24:55,0.15,2.67,0.00,12.79,15.69,19.22,14.91,47.16,1042.53,2069.13,2530.08,2491.97,2848.28,600.27,633.27,28.41,0000 0000 0000 0000 000000
2017-12-13 05:29:56,0.15,2.68,0.00,12.77,15.68,19.18,14.81,47.19,1042.65,2069.36,2528.03,2490.67,2846.78,600.05,633.13,28.46,0000 0000 0000 0000 000000
2017-12-13 05:34:58,0.14,2.69,0.00,12.76,15.67,19.17,14.78,47.17,1042.69,2069.73,2526.23,2489.50,2845.45,599.73,632.88,28.51,0000 0000 0000 0000 000000
2017-12-13 05:39:59,0.11,2.70,0.00,12.76,15.67,19.17,14.85,47.20,1042.58,2069.71,2524.48,2488.31,2843.97,600.03,633.17,28.56,0000 0000 0000 0000 000000
2017-12-13 05:45:00,0.14,2.70,0.00,12.74,15.65,19.16,14.85,47.30,1042.55,2069.90,2522.56,2487.03,2842.56,599.93,633.29,28.61,0000 0000 0000 0000 000000
2017-12-13 05:50:02,0.23,2.71,0.00,12.73,15.64,19.14,14.86,47.25,1042.51,2069.94,2519.45,2485.13,2840.42,600.26,633.32,28.66,0000 0000 0000 0000 000000
2017-12-13 05:55:03,0.28,2.73,0.00,12.73,15.64,19.16,14.83,47.33,1042.55,2069.96,2514.87,2482.35,2837.30,599.89,633.00,28.71,0000 0000 0000 0000 000000
2017-12-13 06:00:04,0.25,2.74,0.00,12.73,15.63,19.10,14.80,47.31,1042.61,2069.96,2510.74,2479.76,2834.24,599.92,633.16,28.76,0000 0000 0000 0000 000000
2017-12-13 06:05:06,0.25,2.75,0.00,12.71,15.62,19.12,14.86,47.29,1042.57,2069.98,2506.68,2477.24,2831.44,600.44,633.65,28.81,0000 0000 0000 0000 000000
2017-12-13 06:10:07,0.27,2.76,0.00,12.69,15.61,19.11,14.73,47.24,1042.54,2069.98,2502.43,2474.59,2828.37,599.75,633.02,28.87,0000 0000 0000 0000 000000
2017-12-13 06:15:08,0.22,2.78,0.00,12.67,15.59,19.08,14.71,47.27,1042.51,2069.99,2498.67,2472.22,2825.60,599.97,633.32,28.92,0000 0000 0000 0000 000000
2017-12-13 06:20:10,0.17,2.79,0.00,12.67,15.59,19.09,14.83,47.19,1042.51,2069.99,2495.89,2470.39,2823.49,600.16,633.47,28.97,0000 0000 0000 0000 000000
2017-12-13 06:25:11,0.13,2.79,0.00,12.67,15.58,19.11,14.84,47.23,1042.51,2069.97,2493.91,2468.88,2821.63,599.86,633.17,29.02,0000 0000 0000 0000 000000
2017-12-13 06:30:13,0.22,2.80,0.00,12.66,15.57,19.07,14.83,47.13,1042.50,2069.96,2490.59,2467.06,2819.50,600.62,633.91,29.07,0000 0000 0000 0000 000000
2017-12-13 06:35:14,0.18,2.81,0.00,12.64,15.57,19.07,14.82,47.31,1042.50,2069.98,2487.14,2465.09,2817.41,599.94,633.29,29.12,0000 0000 0000 0000 000000
2017-12-13 06:40:16,0.15,2.82,0.00,12.64,15.55,19.04,14.85,47.33,1042.50,2069.99,2484.81,2463.58,2815.75,600.03,633.41,29.17,0000 0000 0000 0000 000000
2017-12-13 06:45:17,0.13,2.83,0.00,12.63,15.54,19.05,14.77,47.25,1042.50,2069.99,2482.71,2462.13,2814.17,599.69,632.95,29.22,0000 0000 0000 0000 000000
2017-12-13 06:50:19,0.12,2.83,0.00,12.62,15.54,19.03,14.85,47.23,1042.50,2069.99,2480.79,2460.82,2812.63,600.06,633.48,29.27,0000 0000 0000 0000 000000
2017-12-13 06:55:20,0.14,2.84,0.00,12.61,15.52,19.01,14.81,47.27,1042.50,2069.99,2478.74,2459.49,2810.97,600.23,633.68,29.32,0000 0000 0000 0000 000000
2017-12-13 07:00:22,0.12,2.85,0.00,12.59,15.52,19.04,14.76,47.38,1042.50,2069.99,2476.74,2458.11,2809.32,599.82,633.29,29.37,0000 0000 0000 0000 000000
2017-12-13 07:05:23,0.15,2.86,0.00,12.59,15.51,19.00,14.74,47.36,1042.50,2069.99,2474.45,2456.68,2807.73,599.88,633.32,29.42,0000 0000 0000 0000 000000
2017-12-13 07:10:24,0.11,2.86,0.00,12.59,15.49,19.02,14.88,47.33,1042.50,2069.99,2472.34,2455.48,2806.38,600.42,633.94,29.47,0000 0000 0000 0000 000000
2017-12-13 07:15:26,0.12,2.87,0.00,12.59,15.49,18.97,14.81,47.38,1042.50,2070.00,2470.43,2454.25,2804.98,600.06,633.48,29.52,0000 0000 0000 0000 000000
2017-12-13 07:20:27,0.20,2.88,0.00,12.59,15.47,18.97,14.83,47.25,1042.50,2070.00,2467.73,2452.45,2802.94,600.47,633.90,29.57,0000 0000 0000 0000 000000
2017-12-13 07:25:28,0.23,2.89,0.00,12.57,15.47,18.97,14.88,47.31,1042.50,2070.00,2464.19,2450.24,2800.38,600.23,633.92,29.62,0000 0000 0000 0000 000000
2017-12-13 07:30:29,0.24,2.90,0.00,12.57,15.46,18.97,14.86,47.36,1042.49,2070.01,2460.55,2447.91,2797.75,599.87,633.38,29.67,0000 0000 0000 0000 000000
2017-12-13 07:35:30,0.21,2.91,0.00,12.54,15.44,18.97,14.82,47.42,1042.48,2070.01,2457.10,2445.76,2795.36,600.04,633.61,29.72,0000 0000 0000 0000 000000
2017-12-13 07:40:32,0.20,2.92,0.00,12.54,15.44,18.94,14.81,47.33,1042.48,2070.02,2454.16,2443.80,2793.02,599.63,633.24,29.77,0000 0000 0000 0000 000000
2017-12-13 07:45:33,0.19,2.93,0.00,12.54,15.43,18.94,14.84,47.38,1042.50,2070.03,2451.18,2441.87,2790.78,600.20,633.81,29.82,0000 0000 0000 0000 000000
2017-12-13 07:50:34,0.19,2.94,0.00,12.54,15.42,18.93,14.80,47.30,1042.49,2070.04,2448.04,2439.97,2788.66,599.95,633.53,29.87,0000 0000 0000 0000 000000
2017-12-13 07:55:36,0.19,2.95,0.00,12.54,15.41,18.94,14.89,47.24,1042.48,2070.03,2445.10,2438.01,2786.35,600.23,633.81,29.92,0000 0000 0000 0000 000000
2017-12-13 08:00:37,0.17,2.96,0.00,12.53,15.39,18.90,14.87,47.17,1042.45,2070.05,2442.32,2436.26,2784.29,600.13,633.69,29.97,0000 0000 0000 0000 000000
2017-12-13 08:05:38,0.18,2.97,0.00,12.53,15.39,18.90,14.79,47.20,1042.43,2070.04,2439.52,2434.55,2782.43,599.85,633.45,30.02,0000 0000 0000 0000 000000
2017-12-13 08:10:39,0.22,2.98,0.00,12.52,15.38,18.92,14.74,47.26,1042.32,2070.09,2436.29,2432.56,2780.21,599.92,633.48,30.07,0000 0000 0000 0000 000000
2017-12-13 08:15:40,0.24,2.99,0.00,12.50,15.37,18.90,14.85,47.36,1042.23,2070.25,2432.68,2430.34,2777.62,599.99,633.46,30.12,0000 0000 0000 0000 000000
2017-12-13 08:20:42,0.19,3.00,0.00,12.51,15.37,18.88,14.79,47.29,1042.19,2070.22,2429.65,2428.42,2775.20,600.13,633.61,30.17,0000 0000 0000 0000 000000
2017-12-13 08:25:43,0.19,3.01,0.00,12.52,15.37,18.90,14.84,47.34,1042.21,2070.34,2426.91,2426.72,2773.32,600.13,633.47,30.22,0000 0000 0000 0000 000000
2017-12-13 08:30:44,0.20,3.02,0.00,12.51,15.35,18.85,14.92,47.29,1042.23,2070.68,2424.14,2425.08,2771.53,600.06,633.57,30.27,0000 0000 0000 0000 000000
2017-12-13 08:35:45,0.17,3.03,0.00,12.48,15.34,18.87,14.83,47.28,1042.22,2070.64,2421.42,2423.31,2769.45,599.92,633.50,30.32,0000 0000 0000 0000 000000
2017-12-13 08:40:47,0.24,3.04,0.00,12.48,15.34,18.86,14.76,47.21,1042.16,2070.45,2417.79,2421.07,2766.90,599.93,633.56,30.37,0000 0000 0000 0000 000000
2017-12-13 08:45:48,0.33,3.06,0.00,12.49,15.32,18.84,14.83,47.31,1042.29,2070.77,2413.19,2418.41,2763.95,600.44,634.03,30.42,0000 0000 0000 0000 000000
2017-12-13 08:50:50,0.33,3.07,0.00,12.48,15.32,18.82,14.84,47.42,1042.26,2070.86,2408.13,2415.44,2760.69,600.22,633.81,30.47,0000 0000 0000 0000 000000
2017-12-13 08:55:51,0.14,3.09,0.00,12.47,15.32,18.84,14.82,47.41,1042.14,2070.95,2405.07,2413.77,2758.83,600.00,633.67,30.52,0000 0000 0000 0000 000000
2017-12-13 09:00:52,0.12,3.09,0.00,12.46,15.30,18.82,14.84,47.42,1042.09,2070.98,2403.41,2412.71,2757.63,599.98,633.54,30.57,0000 0000 0000 0000 000000
2017-12-13 09:05:53,0.19,3.10,0.00,12.45,15.29,18.81,14.90,47.46,1042.18,2070.98,2400.82,2411.11,2755.74,600.22,633.80,30.62,0000 0000 0000 0000 000000
2017-12-13 09:10:55,0.20,3.11,0.00,12.45,15.29,18.83,14.86,47.42,1042.05,2070.95,2397.76,2409.12,2753.44,599.98,633.54,30.67,0000 0000 0000 0000 000000
2017-12-13 09:15:56,0.23,3.12,0.00,12.43,15.28,18.81,14.78,47.26,1042.04,2070.97,2394.45,2407.02,2751.04,599.79,633.43,30.72,0000 0000 0000 0000 000000
2017-12-13 09:20:57,0.27,3.14,0.00,12.42,15.27,18.80,14.88,47.30,1042.03,2070.97,2390.52,2404.50,2748.25,600.04,633.70,30.77,0000 0000 0000 0000 000000
2017-12-13 09:25:58,0.26,3.15,0.00,12.42,15.27,18.77,14.78,47.32,1042.02,2070.97,2386.48,2401.97,2745.37,600.15,633.67,30.82,0000 0000 0000 0000 000000
2017-12-13 09:30:59,0.24,3.16,0.00,12.42,15.26,18.80,14.78,47.38,1042.02,2070.97,2382.77,2399.64,2742.82,599.84,633.44,30.87,0000 0000 0000 0000 000000
2017-12-13 09:36:01,0.21,3.17,0.00,12.40,15.24,18.80,14.84,47.47,1042.02,2070.97,2379.47,2397.51,2740.44,599.95,633.54,30.92,0000 0000 0000 0000 000000
2017-12-13 09:41:02,0.20,3.18,0.00,12.39,15.24,18.74,14.87,47.34,1042.02,2070.98,2376.48,2395.66,2738.22,599.84,633.45,30.97,0000 0000 0000 0000 000000
2017-12-13 09:46:04,0.19,3.19,0.00,12.40,15.24,18.73,14.75,47.18,1042.03,2070.99,2373.58,2393.87,2736.21,599.82,633.43,31.02,0000 0000 0000 0000 000000
2017-12-13 09:51:05,0.18,3.20,0.00,12.39,15.23,18.75,14.78,47.17,1042.04,2070.98,2370.71,2392.17,2734.24,599.74,633.36,31.07,0000 0000 0000 0000 000000
2017-12-13 09:56:06,0.18,3.21,0.00,12.39,15.22,18.74,14.84,47.25,1042.01,2070.99,2367.82,2390.42,2732.22,600.26,633.96,31.12,0000 0000 0000 0000 000000
2017-12-13 10:01:08,0.21,3.22,0.00,12.38,15.22,18.76,14.76,47.35,1042.01,2070.99,2364.84,2388.53,2730.21,599.97,633.78,31.17,0000 0000 0000 0000 000000
2017-12-13 10:06:09,0.21,3.23,0.00,12.37,15.21,18.74,14.90,47.37,1042.01,2070.99,2361.69,2386.58,2727.98,600.44,634.13,31.22,0000 0000 0000 0000 000000
2017-12-13 10:11:10,0.38,3.25,0.00,12.35,15.19,18.71,14.71,47.24,1042.01,2070.99,2356.98,2383.57,2724.50,599.80,633.56,31.27,0000 0000 0000 0000 000000
2017-12-13 10:16:12,0.50,3.27,0.00,12.35,15.19,18.69,14.76,47.42,1042.00,2070.99,2350.02,2378.91,2719.26,599.87,633.60,31.32,0000 0000 0000 0000 000000
2017-12-13 10:21:13,0.48,3.30,0.00,12.34,15.19,18.72,14.79,47.46,1042.00,2070.99,2343.06,2374.28,2714.03,599.91,633.63,31.37,0000 0000 0000 0000 000000
2017-12-13 10:26:14,0.44,3.32,0.00,12.33,15.17,18.70,14.75,47.42,1042.01,2070.99,2336.64,2370.12,2709.39,599.75,633.50,31.42,0000 0000 0000 0000 000000
2017-12-13 10:31:16,0.30,3.34,0.00,12.32,15.17,18.68,14.83,47.38,1042.01,2070.99,2331.42,2366.99,2705.89,600.11,633.90,31.47,0000 0000 0000 0000 000000
2017-12-13 10:36:17,0.29,3.35,0.00,12.32,15.17,18.70,14.73,47.35,1042.00,2070.99,2327.26,2364.43,2702.98,599.86,633.60,31.52,0000 0000 0000 0000 000000
2017-12-13 10:41:19,0.34,3.37,0.00,12.30,15.15,18.67,14.79,47.58,1042.01,2070.99,2322.51,2361.34,2699.55,599.87,633.75,31.57,0000 0000 0000 0000 000000
2017-12-13 10:46:20,0.28,3.38,0.00,12.29,15.14,18.68,14.83,47.42,1042.00,2071.00,2318.17,2358.64,2696.53,599.78,633.64,31.62,0000 0000 0000 0000 000000
2017-12-13 10:51:22,0.41,3.40,0.00,12.29,15.14,18.68,14.82,47.40,1041.95,2071.00,2313.15,2355.24,2692.47,600.08,633.89,31.67,0000 0000 0000 0000 000000
2017-12-13 10:56:23,0.47,3.43,0.00,12.28,15.14,18.66,14.88,47.48,1041.91,2071.00,2306.55,2350.82,2687.57,599.83,633.58,31.72,0000 0000 0000 0000 000000
2017-12-13 11:01:25,0.38,3.45,0.00,12.28,15.12,18.64,14.81,47.43,1041.93,2071.00,2300.87,2347.06,2683.49,599.78,633.60,31.77,0000 0000 0000 0000 000000
2017-12-13 11:06:26,0.18,3.46,0.00,12.27,15.12,18.62,14.77,47.44,1041.92,2071.00,2297.97,2344.98,2681.01,600.00,633.80,31.82,0000 0000 0000 0000 000000
2017-12-13 11:11:27,0.16,3.47,0.00,12.24,15.12,18.61,14.84,47.50,1041.86,2071.00,2295.52,2343.53,2679.37,599.89,633.70,31.88,0000 0000 0000 0000 000000
2017-12-13 11:16:28,0.18,3.48,0.00,12.24,15.10,18.61,14.81,47.49,1041.68,2071.00,2292.97,2341.88,2677.54,600.22,633.99,31.93,0000 0000 0000 0000 000000
2017-12-13 11:21:30,0.19,3.49,0.00,12.24,15.09,18.62,14.85,47.52,1041.67,2071.00,2290.22,2340.15,2675.57,600.09,633.91,31.98,0000 0000 0000 0000 000000
2017-12-13 11:26:31,0.25,3.50,0.00,12.24,15.09,18.60,14.86,47.46,1041.62,2071.01,2287.04,2338.05,2673.19,599.91,633.71,32.03,0000 0000 0000 0000 000000
2017-12-13 11:31:32,0.24,3.51,0.00,12.23,15.09,18.58,14.77,47.49,1041.69,2071.00,2283.54,2335.75,2670.59,599.76,633.55,32.08,0000 0000 0000 0000 000000
2017-12-13 11:36:34,0.23,3.52,0.00,12.21,15.08,18.57,14.86,47.49,1041.65,2071.02,2280.29,2333.63,2668.26,600.13,633.98,32.13,0000 0000 0000 0000 000000
2017-12-13 11:41:35,0.23,3.54,0.00,12.20,15.07,18.60,14.86,47.52,1041.64,2071.01,2277.04,2331.49,2665.82,599.98,633.76,32.18,0000 0000 0000 0000 000000
2017-12-13 11:46:36,0.28,3.55,0.00,12.20,15.07,18.59,14.85,47.51,1041.62,2071.01,2273.42,2329.05,2663.07,600.19,634.00,32.23,0000 0000 0000 0000 000000
2017-12-13 11:51:38,0.27,3.56,0.00,12.22,15.06,18.57,14.89,47.49,1041.57,2071.02,2269.54,2326.56,2660.29,600.04,633.70,32.28,0000 0000 0000 0000 000000
2017-12-13 11:56:39,0.32,3.58,0.00,12.21,15.05,18.54,14.81,47.45,1041.56,2071.01,2265.16,2323.68,2657.08,599.92,633.61,32.33,0000 0000 0000 0000 000000
2017-12-13 12:01:41,0.30,3.59,0.00,12.19,15.04,18.58,14.71,47.48,1041.54,2071.02,2261.04,2320.97,2653.94,600.02,633.79,32.38,0000 0000 0000 0000 000000
2017-12-13 12:06:42,0.31,3.61,0.00,12.19,15.04,18.56,14.74,47.40,1041.53,2071.04,2256.80,2318.20,2650.84,599.97,633.82,32.43,0000 0000 0000 0000 000000
2017-12-13 12:11:43,0.32,3.63,0.00,12.19,15.02,18.54,14.78,47.42,1041.53,2071.04,2252.27,2315.33,2647.66,599.84,633.61,32.48,0000 0000 0000 0000 000000
2017-12-13 12:16:45,0.32,3.64,0.00,12.19,15.02,18.53,14.70,47.48,1041.52,2071.08,2247.93,2312.51,2644.57,599.80,633.55,32.53,0000 0000 0000 0000 000000
2017-12-13 12:21:46,0.32,3.66,0.00,12.19,15.01,18.56,14.74,47.45,1041.52,2071.06,2243.58,2309.65,2641.29,599.82,633.75,32.58,0000 0000 0000 0000 000000
2017-12-13 12:26:47,0.32,3.67,0.00,12.18,14.99,18.54,14.66,47.40,1041.52,2071.07,2239.17,2306.66,2637.90,599.43,633.19,32.63,0000 0000 0000 0000 000000
2017-12-13 12:31:48,0.30,3.69,0.00,12.18,14.99,18.50,14.81,47.22,1041.51,2071.08,2235.09,2303.96,2634.80,599.81,633.59,32.68,0000 0000 0000 0000 000000
2017-12-13 12:36:50,0.28,3.71,0.00,12.16,14.99,18.51,14.80,47.28,1041.49,2071.08,2231.13,2301.48,2631.98,599.97,633.87,32.73,0000 0000 0000 0000 000000
2017-12-13 12:41:51,0.30,3.72,0.00,12.14,14.97,18.51,14.79,47.51,1041.43,2071.13,2227.18,2298.94,2629.16,600.08,633.75,32.78,0000 0000 0000 0000 000000
2017-12-13 12:46:53,0.30,3.73,0.00,12.13,14.97,18.51,14.81,47.48,1041.38,2071.16,2223.08,2296.35,2626.30,600.07,633.94,32.83,0000 0000 0000 0000 000000
2017-12-13 12:51:55,0.29,3.75,0.00,12.13,14.95,18.51,14.75,47.42,1041.38,2071.23,2219.05,2293.77,2623.51,599.83,633.54,32.89,0000 0000 0000 0000 000000
2017-12-13 12:56:56,0.31,3.77,0.00,12.13,14.94,18.47,14.85,47.43,1041.43,2071.56,2215.23,2291.32,2620.90,599.96,633.78,32.94,0000 0000 0000 0000 000000